Location: Coupvray
(48.8929°N, 2.7967°E)
Time: 21:22:58
(UTC+00:00)

Cosmos 1241 Rocket - Pass Details

Date: 03 November 2020
Orbit: 929 x 1018 km, 65.8° (Epoch: 30 November)

Event Time Altitude Azimuth Distance (km) Brightness Sun altitude
Rises 18:10:28 0° 281° (W) 3,683 9.0 -17.7°
Reaches altitude 10° 18:13:47 10° 297° (WNW) 2,753 7.8 -18.3°
Maximum altitude 18:18:28 20° 344° (NNW) 2,115 6.4 -19.0°
Drops below altitude 10° 18:23:13 10° 31° (NNE) 2,796 6.6 -19.8°
Enters shadow 18:23:18 10° 31° (NNE) 2,817 6.6 -19.8°
